Time,TemperatureF,DewpointF,PressureIn,WindDirection,WindDirectionDegrees,WindSpeedMPH,WindSpeedGustMPH,Humidity,HourlyPrecipIn,Conditions,Clouds,dailyrainin,SoftwareType,DateUTC
2013-08-22 00:00:00,61.3,59.3,30.18,SSW,206,0.0,0.0,93,0.00,,,0.00,Wunderground v.1.15,2013-08-22 04:00:00,
2013-08-22 00:05:00,61.2,59.2,30.18,SSW,206,0.0,0.0,93,0.00,,,0.00,Wunderground v.1.15,2013-08-22 04:05:00,
2013-08-22 00:10:00,61.1,59.1,30.18,SSW,206,0.0,0.0,93,0.00,,,0.00,Wunderground v.1.15,2013-08-22 04:10:00,
2013-08-22 00:15:00,61.0,59.0,30.18,SSW,206,0.0,0.0,93,0.00,,,0.00,Wunderground v.1.15,2013-08-22 04:15:00,
2013-08-22 00:20:00,61.0,59.0,30.18,SSW,206,0.0,0.0,93,0.00,,,0.00,Wunderground v.1.15,2013-08-22 04:20:00,
2013-08-22 00:25:00,60.9,58.9,30.18,SSW,206,0.0,0.0,93,0.00,,,0.00,Wunderground v.1.15,2013-08-22 04:25:00,
2013-08-22 00:30:00,60.9,58.9,30.18,SSW,206,0.0,0.0,93,0.00,,,0.00,Wunderground v.1.15,2013-08-22 04:30:00,
2013-08-22 00:40:00,60.7,58.7,30.18,SSW,206,0.0,0.0,93,0.00,,,0.00,Wunderground v.1.15,2013-08-22 04:40:00,
2013-08-22 00:45:00,60.7,58.7,30.18,SSW,206,0.0,0.0,93,0.00,,,0.00,Wunderground v.1.15,2013-08-22 04:45:00,
2013-08-22 00:50:00,60.7,58.7,30.18,SSW,206,0.0,0.0,93,0.00,,,0.00,Wunderground v.1.15,2013-08-22 04:50:00,
2013-08-22 00:55:00,60.6,58.9,30.19,SSW,206,0.0,0.0,94,0.00,,,0.00,Wunderground v.1.15,2013-08-22 04:55:00,
2013-08-22 01:05:00,60.4,58.4,30.18,SSW,206,0.0,0.0,93,0.00,,,0.00,Wunderground v.1.15,2013-08-22 05:05:00,
2013-08-22 01:10:00,60.4,58.4,30.19,SSW,206,0.0,0.0,93,0.00,,,0.00,Wunderground v.1.15,2013-08-22 05:10:00,
2013-08-22 01:15:00,60.3,58.3,30.18,SSW,206,0.0,0.0,93,0.00,,,0.00,Wunderground v.1.15,2013-08-22 05:15:00,
2013-08-22 01:20:00,60.2,58.5,30.19,SSW,206,0.0,0.0,94,0.00,,,0.00,Wunderground v.1.15,2013-08-22 05:20:00,
2013-08-22 01:25:00,60.1,58.4,30.19,SSW,206,0.0,0.0,94,0.00,,,0.00,Wunderground v.1.15,2013-08-22 05:25:00,
2013-08-22 01:30:00,60.0,58.3,30.18,SSW,206,0.0,0.0,94,0.00,,,0.00,Wunderground v.1.15,2013-08-22 05:30:00,
2013-08-22 01:40:00,60.0,58.3,30.18,SSW,206,0.0,0.0,94,0.00,,,0.00,Wunderground v.1.15,2013-08-22 05:40:00,
2013-08-22 01:45:00,59.9,58.2,30.18,SSW,206,0.0,0.0,94,0.00,,,0.00,Wunderground v.1.15,2013-08-22 05:45:00,
2013-08-22 01:55:00,59.9,58.2,30.19,SSW,206,0.0,0.0,94,0.00,,,0.00,Wunderground v.1.15,2013-08-22 05:55:00,
2013-08-22 02:00:00,59.8,58.1,30.19,SSW,206,0.0,0.0,94,0.00,,,0.00,Wunderground v.1.15,2013-08-22 06:00:00,
2013-08-22 02:05:00,59.9,58.2,30.19,SSW,206,0.0,0.0,94,0.00,,,0.00,Wunderground v.1.15,2013-08-22 06:05:00,
2013-08-22 02:10:00,59.9,58.2,30.18,SSW,206,0.0,0.0,94,0.00,,,0.00,Wunderground v.1.15,2013-08-22 06:10:00,
2013-08-22 02:15:00,60.0,58.3,30.18,SSW,206,0.0,0.0,94,0.00,,,0.00,Wunderground v.1.15,2013-08-22 06:15:00,
2013-08-22 02:25:00,60.1,58.4,30.18,SSW,206,0.0,0.0,94,0.00,,,0.00,Wunderground v.1.15,2013-08-22 06:25:00,
2013-08-22 02:30:00,60.2,58.5,30.18,SSW,206,0.0,0.0,94,0.00,,,0.00,Wunderground v.1.15,2013-08-22 06:30:00,
2013-08-22 02:40:00,60.6,58.9,30.18,SSW,206,0.0,0.0,94,0.00,,,0.00,Wunderground v.1.15,2013-08-22 06:40:00,
2013-08-22 02:45:00,60.9,59.2,30.18,SSW,206,0.0,0.0,94,0.00,,,0.00,Wunderground v.1.15,2013-08-22 06:45:00,
2013-08-22 02:50:00,61.0,59.3,30.18,SSW,206,0.0,0.0,94,0.00,,,0.00,Wunderground v.1.15,2013-08-22 06:50:00,
2013-08-22 02:55:00,61.1,59.4,30.18,SSW,206,0.0,0.0,94,0.00,,,0.00,Wunderground v.1.15,2013-08-22 06:55:00,
2013-08-22 03:00:00,61.0,59.3,30.17,SSW,206,0.0,0.0,94,0.00,,,0.00,Wunderground v.1.15,2013-08-22 07:00:00,
2013-08-22 03:10:00,60.8,59.1,30.17,SSW,206,0.0,0.0,94,0.00,,,0.00,Wunderground v.1.15,2013-08-22 07:10:00,
2013-08-22 03:15:00,60.8,59.1,30.17,SSW,206,0.0,0.0,94,0.00,,,0.00,Wunderground v.1.15,2013-08-22 07:15:00,
2013-08-22 03:25:00,60.9,59.2,30.17,SSW,206,0.0,0.0,94,0.00,,,0.00,Wunderground v.1.15,2013-08-22 07:25:00,
2013-08-22 03:30:00,60.9,59.2,30.17,SSW,206,0.0,0.0,94,0.00,,,0.00,Wunderground v.1.15,2013-08-22 07:30:00,
2013-08-22 03:35:00,60.9,59.2,30.17,SSW,206,0.0,0.0,94,0.00,,,0.00,Wunderground v.1.15,2013-08-22 07:35:00,
2013-08-22 03:40:00,60.9,59.2,30.17,SSW,206,0.0,0.0,94,0.00,,,0.00,Wunderground v.1.15,2013-08-22 07:40:00,
2013-08-22 03:45:00,61.0,59.3,30.17,SSW,206,0.0,0.0,94,0.00,,,0.00,Wunderground v.1.15,2013-08-22 07:45:00,
2013-08-22 03:55:00,61.0,59.3,30.17,SSW,206,0.0,0.0,94,0.00,,,0.00,Wunderground v.1.15,2013-08-22 07:55:00,
2013-08-22 04:05:00,61.1,59.4,30.17,SSW,206,0.0,0.0,94,0.00,,,0.00,Wunderground v.1.15,2013-08-22 08:05:00,
2013-08-22 04:10:00,61.0,59.3,30.17,SSW,206,0.0,0.0,94,0.00,,,0.00,Wunderground v.1.15,2013-08-22 08:10:00,
2013-08-22 04:15:00,61.0,59.3,30.17,SSW,206,0.0,0.0,94,0.00,,,0.00,Wunderground v.1.15,2013-08-22 08:15:00,
2013-08-22 04:25:00,61.0,59.3,30.17,SSW,206,0.0,0.0,94,0.00,,,0.00,Wunderground v.1.15,2013-08-22 08:25:00,
2013-08-22 04:30:00,60.9,59.2,30.17,SSW,206,0.0,0.0,94,0.00,,,0.00,Wunderground v.1.15,2013-08-22 08:30:00,
2013-08-22 04:35:00,61.0,59.3,30.17,SSW,206,0.0,0.0,94,0.00,,,0.00,Wunderground v.1.15,2013-08-22 08:35:00,
2013-08-22 04:45:00,61.0,59.3,30.17,SSW,206,0.0,0.0,94,0.00,,,0.00,Wunderground v.1.15,2013-08-22 08:45:00,
2013-08-22 04:55:00,60.8,59.1,30.17,SSW,206,0.0,0.0,94,0.00,,,0.00,Wunderground v.1.15,2013-08-22 08:55:00,
2013-08-22 05:00:00,60.8,59.1,30.17,SSW,206,0.0,0.0,94,0.00,,,0.00,Wunderground v.1.15,2013-08-22 09:00:00,
2013-08-22 05:10:00,60.6,58.9,30.17,SSW,206,0.0,0.0,94,0.00,,,0.00,Wunderground v.1.15,2013-08-22 09:10:00,
2013-08-22 05:15:00,60.5,58.8,30.17,SSW,206,0.0,0.0,94,0.00,,,0.00,Wunderground v.1.15,2013-08-22 09:15:00,
2013-08-22 05:20:00,60.5,58.8,30.17,SSW,206,0.0,0.0,94,0.00,,,0.00,Wunderground v.1.15,2013-08-22 09:20:00,
2013-08-22 05:25:00,60.5,58.8,30.17,SSW,206,0.0,0.0,94,0.00,,,0.00,Wunderground v.1.15,2013-08-22 09:25:00,
2013-08-22 05:30:00,60.5,58.8,30.17,SSW,206,0.0,0.0,94,0.00,,,0.00,Wunderground v.1.15,2013-08-22 09:30:00,
2013-08-22 05:40:00,60.6,58.9,30.17,SSW,206,0.0,0.0,94,0.00,,,0.00,Wunderground v.1.15,2013-08-22 09:40:00,
2013-08-22 05:45:00,60.5,58.8,30.17,SSW,206,0.0,0.0,94,0.00,,,0.00,Wunderground v.1.15,2013-08-22 09:45:00,
2013-08-22 05:55:00,60.4,58.7,30.17,SSW,206,0.0,0.0,94,0.00,,,0.00,Wunderground v.1.15,2013-08-22 09:55:00,
2013-08-22 06:00:00,60.3,58.6,30.17,SSW,206,0.0,0.0,94,0.00,,,0.00,Wunderground v.1.15,2013-08-22 10:00:00,
2013-08-22 06:05:00,60.3,58.6,30.17,SSW,206,0.0,0.0,94,0.00,,,0.00,Wunderground v.1.15,2013-08-22 10:05:00,
2013-08-22 06:10:00,60.2,58.5,30.18,SSW,206,0.0,0.0,94,0.00,,,0.00,Wunderground v.1.15,2013-08-22 10:10:00,
2013-08-22 06:15:00,60.2,58.5,30.17,SSW,206,0.0,0.0,94,0.00,,,0.00,Wunderground v.1.15,2013-08-22 10:15:00,
2013-08-22 06:20:00,60.2,58.5,30.17,SSW,206,0.0,0.0,94,0.00,,,0.00,Wunderground v.1.15,2013-08-22 10:20:00,
2013-08-22 06:25:00,60.2,58.5,30.17,SSW,206,0.0,0.0,94,0.00,,,0.00,Wunderground v.1.15,2013-08-22 10:25:00,
2013-08-22 06:30:00,60.2,58.5,30.17,SSW,206,0.0,0.0,94,0.00,,,0.00,Wunderground v.1.15,2013-08-22 10:30:00,
2013-08-22 06:40:00,60.2,58.5,30.18,SSW,206,0.0,0.0,94,0.00,,,0.00,Wunderground v.1.15,2013-08-22 10:40:00,
2013-08-22 06:45:00,60.2,58.5,30.18,SSW,206,0.0,0.0,94,0.00,,,0.00,Wunderground v.1.15,2013-08-22 10:45:00,
2013-08-22 08:30:00,62.3,60.8,30.19,SSW,206,0.0,0.0,95,0.00,,,0.00,Wunderground v.1.15,2013-08-22 12:30:00,
2013-08-22 08:40:00,62.6,61.1,30.19,SSW,206,0.0,0.0,95,0.00,,,0.00,Wunderground v.1.15,2013-08-22 12:40:00,
2013-08-22 08:45:00,62.7,61.2,30.19,SSW,206,0.0,0.0,95,0.00,,,0.00,Wunderground v.1.15,2013-08-22 12:45:00,
2013-08-22 08:50:00,62.9,61.4,30.19,SSW,206,0.0,0.0,95,0.00,,,0.00,Wunderground v.1.15,2013-08-22 12:50:00,
2013-08-22 08:55:00,63.2,61.7,30.19,SSW,206,0.0,0.0,95,0.00,,,0.00,Wunderground v.1.15,2013-08-22 12:55:00,
2013-08-22 09:05:00,63.6,62.1,30.19,SSW,206,0.0,0.0,95,0.00,,,0.00,Wunderground v.1.15,2013-08-22 13:05:00,
2013-08-22 09:10:00,63.8,62.3,30.19,SSW,206,0.0,0.0,95,0.00,,,0.00,Wunderground v.1.15,2013-08-22 13:10:00,
2013-08-22 09:15:00,63.9,62.4,30.19,SSW,206,0.0,0.0,95,0.00,,,0.00,Wunderground v.1.15,2013-08-22 13:15:00,
2013-08-22 09:25:00,64.5,63.0,30.19,SSW,206,0.0,0.0,95,0.00,,,0.00,Wunderground v.1.15,2013-08-22 13:25:00,
2013-08-22 09:30:00,64.8,63.3,30.19,SSW,206,0.0,0.0,95,0.00,,,0.00,Wunderground v.1.15,2013-08-22 13:30:00,
2013-08-22 09:40:00,65.5,64.0,30.18,SSW,213,0.0,0.0,95,0.00,,,0.00,Wunderground v.1.15,2013-08-22 13:40:00,
2013-08-22 09:45:00,65.9,64.4,30.18,West,278,0.0,0.0,95,0.00,,,0.00,Wunderground v.1.15,2013-08-22 13:45:00,
2013-08-22 09:55:00,66.7,65.2,30.18,WNW,293,0.0,1.0,95,0.00,,,0.00,Wunderground v.1.15,2013-08-22 13:55:00,
2013-08-22 10:00:00,66.8,65.3,30.18,WNW,294,0.0,1.0,95,0.00,,,0.00,Wunderground v.1.15,2013-08-22 14:00:00,
2013-08-22 10:10:00,67.4,65.9,30.18,WNW,294,0.0,0.0,95,0.00,,,0.00,Wunderground v.1.15,2013-08-22 14:10:00,
2013-08-22 10:15:00,67.5,66.0,30.18,WNW,294,0.0,0.0,95,0.00,,,0.00,Wunderground v.1.15,2013-08-22 14:15:00,
2013-08-22 10:25:00,67.7,66.2,30.17,WNW,294,0.0,0.0,95,0.00,,,0.00,Wunderground v.1.15,2013-08-22 14:25:00,
2013-08-22 10:35:00,68.7,67.2,30.17,WNW,294,0.0,0.0,95,0.00,,,0.00,Wunderground v.1.15,2013-08-22 14:35:00,
2013-08-22 10:40:00,69.2,67.7,30.17,NW,314,0.0,0.0,95,0.00,,,0.00,Wunderground v.1.15,2013-08-22 14:40:00,
2013-08-22 10:45:00,69.6,68.1,30.17,SW,223,0.0,0.0,95,0.00,,,0.00,Wunderground v.1.15,2013-08-22 14:45:00,
2013-08-22 10:50:00,69.5,68.0,30.17,WNW,296,1.0,3.0,95,0.00,,,0.00,Wunderground v.1.15,2013-08-22 14:50:00,
2013-08-22 10:55:00,69.4,67.6,30.17,West,263,2.0,3.0,94,0.00,,,0.00,Wunderground v.1.15,2013-08-22 14:55:00,
2013-08-22 11:00:00,69.5,67.7,30.17,WNW,295,1.0,1.0,94,0.00,,,0.00,Wunderground v.1.15,2013-08-22 15:00:00,
2013-08-22 11:10:00,70.2,68.4,30.17,WNW,294,0.0,1.0,94,0.00,,,0.00,Wunderground v.1.15,2013-08-22 15:10:00,
2013-08-22 11:15:00,70.4,68.3,30.17,WNW,293,0.0,1.0,93,0.00,,,0.00,Wunderground v.1.15,2013-08-22 15:15:00,
2013-08-22 11:25:00,71.0,68.9,30.17,WNW,293,0.0,0.0,93,0.00,,,0.00,Wunderground v.1.15,2013-08-22 15:25:00,
2013-08-22 11:30:00,71.5,69.1,30.17,SE,138,0.0,0.0,92,0.00,,,0.00,Wunderground v.1.15,2013-08-22 15:30:00,
2013-08-22 11:35:00,71.9,69.4,30.17,SE,138,0.0,0.0,92,0.00,,,0.00,Wunderground v.1.15,2013-08-22 15:35:00,
2013-08-22 11:40:00,72.4,69.9,30.16,SE,138,0.0,0.0,92,0.00,,,0.00,Wunderground v.1.15,2013-08-22 15:40:00,
2013-08-22 11:50:00,72.6,69.8,30.16,SE,138,0.0,0.0,91,0.00,,,0.00,Wunderground v.1.15,2013-08-22 15:50:00,
2013-08-22 11:55:00,72.9,70.1,30.16,SE,138,0.0,0.0,91,0.00,,,0.00,Wunderground v.1.15,2013-08-22 15:55:00,
2013-08-22 12:00:00,73.0,70.2,30.16,SE,138,0.0,0.0,91,0.00,,,0.00,Wunderground v.1.15,2013-08-22 16:00:00,
2013-08-22 12:10:00,72.9,70.1,30.16,SE,138,0.0,0.0,91,0.00,,,0.00,Wunderground v.1.15,2013-08-22 16:10:00,
2013-08-22 12:15:00,73.6,70.8,30.16,SE,138,0.0,0.0,91,0.00,,,0.00,Wunderground v.1.15,2013-08-22 16:15:00,
2013-08-22 12:20:00,73.8,70.7,30.15,SE,140,0.0,1.0,90,0.00,,,0.00,Wunderground v.1.15,2013-08-22 16:20:00,
2013-08-22 12:25:00,73.6,70.5,30.15,SE,140,0.0,1.0,90,0.00,,,0.00,Wunderground v.1.15,2013-08-22 16:25:00,
2013-08-22 12:30:00,74.4,71.3,30.15,SE,140,0.0,0.0,90,0.00,,,0.00,Wunderground v.1.15,2013-08-22 16:30:00,
2013-08-22 12:40:00,75.6,71.8,30.15,ESE,103,0.0,1.0,88,0.00,,,0.00,Wunderground v.1.15,2013-08-22 16:40:00,
2013-08-22 12:45:00,75.6,71.8,30.15,WNW,294,0.0,1.0,88,0.00,,,0.00,Wunderground v.1.15,2013-08-22 16:45:00,
2013-08-22 12:55:00,76.4,72.2,30.15,WNW,294,0.0,1.0,87,0.00,,,0.00,Wunderground v.1.15,2013-08-22 16:55:00,
2013-08-22 13:05:00,75.8,71.3,30.14,West,276,1.0,1.0,86,0.00,,,0.00,Wunderground v.1.15,2013-08-22 17:05:00,
2013-08-22 13:10:00,75.4,71.3,30.14,West,276,0.0,0.0,87,0.00,,,0.00,Wunderground v.1.15,2013-08-22 17:10:00,
2013-08-22 13:20:00,75.8,71.7,30.13,NW,309,1.0,1.0,87,0.00,,,0.00,Wunderground v.1.15,2013-08-22 17:20:00,
2013-08-22 13:25:00,76.1,71.3,30.13,WNW,290,0.0,1.0,85,0.00,,,0.00,Wunderground v.1.15,2013-08-22 17:25:00,
2013-08-22 13:30:00,76.9,72.7,30.12,WNW,288,0.0,0.0,87,0.00,,,0.00,Wunderground v.1.15,2013-08-22 17:30:00,
2013-08-22 13:40:00,77.5,70.1,30.12,WNW,296,1.0,4.0,78,0.00,,,0.00,Wunderground v.1.15,2013-08-22 17:40:00,
2013-08-22 13:45:00,77.5,71.9,30.13,WNW,288,2.0,4.0,83,0.00,,,0.00,Wunderground v.1.15,2013-08-22 17:45:00,
2013-08-22 13:55:00,76.5,71.7,30.12,WNW,286,0.0,1.0,85,0.00,,,0.00,Wunderground v.1.15,2013-08-22 17:55:00,
2013-08-22 14:00:00,76.5,72.0,30.12,SW,231,0.0,0.0,86,0.00,,,0.00,Wunderground v.1.15,2013-08-22 18:00:00,
2013-08-22 14:10:00,77.1,70.8,30.12,NW,321,1.0,3.0,81,0.00,,,0.00,Wunderground v.1.15,2013-08-22 18:10:00,
2013-08-22 14:15:00,78.3,73.1,30.11,West,280,2.0,3.0,84,0.00,,,0.00,Wunderground v.1.15,2013-08-22 18:15:00,
2013-08-22 14:20:00,79.1,73.1,30.11,West,273,1.0,1.0,82,0.00,,,0.00,Wunderground v.1.15,2013-08-22 18:20:00,
2013-08-22 14:25:00,79.6,71.8,30.11,NW,322,0.0,1.0,77,0.00,,,0.00,Wunderground v.1.15,2013-08-22 18:25:00,
2013-08-22 14:35:00,80.1,70.3,30.11,WNW,288,1.0,2.0,72,0.00,,,0.00,Wunderground v.1.15,2013-08-22 18:35:00,
2013-08-22 14:40:00,80.5,72.6,30.10,SW,214,1.0,1.0,77,0.00,,,0.00,Wunderground v.1.15,2013-08-22 18:40:00,
2013-08-22 14:45:00,80.7,72.0,30.10,WSW,247,1.0,1.0,75,0.00,,,0.00,Wunderground v.1.15,2013-08-22 18:45:00,
2013-08-22 14:50:00,80.9,72.2,30.10,WNW,288,1.0,4.0,75,0.00,,,0.00,Wunderground v.1.15,2013-08-22 18:50:00,
2013-08-22 15:00:00,81.1,72.8,30.10,WSW,246,1.0,1.0,76,0.00,,,0.00,Wunderground v.1.15,2013-08-22 19:00:00,
2013-08-22 15:05:00,81.2,73.7,30.10,SSE,153,0.0,1.0,78,0.00,,,0.00,Wunderground v.1.15,2013-08-22 19:05:00,
2013-08-22 15:10:00,80.8,70.9,30.09,WNW,293,0.0,3.0,72,0.00,,,0.00,Wunderground v.1.15,2013-08-22 19:10:00,
2013-08-22 15:15:00,81.1,74.0,30.09,WNW,295,0.0,3.0,79,0.00,,,0.00,Wunderground v.1.15,2013-08-22 19:15:00,
2013-08-22 15:25:00,79.8,71.9,30.09,West,275,1.0,2.0,77,0.00,,,0.00,Wunderground v.1.15,2013-08-22 19:25:00,
2013-08-22 15:30:00,79.8,71.9,30.09,WNW,283,1.0,1.0,77,0.00,,,0.00,Wunderground v.1.15,2013-08-22 19:30:00,
2013-08-22 15:40:00,80.2,70.4,30.08,WNW,290,2.0,2.0,72,0.00,,,0.00,Wunderground v.1.15,2013-08-22 19:40:00,
2013-08-22 15:45:00,80.4,71.3,30.08,WNW,289,1.0,5.0,74,0.00,,,0.00,Wunderground v.1.15,2013-08-22 19:45:00,
2013-08-22 15:50:00,80.4,71.7,30.07,North,350,2.0,2.0,75,0.00,,,0.00,Wunderground v.1.15,2013-08-22 19:50:00,
2013-08-22 15:55:00,80.4,72.9,30.07,North,350,1.0,2.0,78,0.00,,,0.00,Wunderground v.1.15,2013-08-22 19:55:00,
2013-08-22 16:05:00,79.1,71.3,30.07,West,277,1.0,1.0,77,0.00,,,0.00,Wunderground v.1.15,2013-08-22 20:05:00,
2013-08-22 16:10:00,78.0,71.7,30.07,West,276,1.0,1.0,81,0.00,,,0.00,Wunderground v.1.15,2013-08-22 20:10:00,
2013-08-22 16:15:00,76.9,71.0,30.07,West,276,0.0,1.0,82,0.00,,,0.00,Wunderground v.1.15,2013-08-22 20:15:00,
2013-08-22 16:25:00,75.6,70.8,30.07,West,276,0.0,0.0,85,0.00,,,0.00,Wunderground v.1.15,2013-08-22 20:25:00,
2013-08-22 16:30:00,75.8,71.7,30.07,West,276,0.0,0.0,87,0.00,,,0.00,Wunderground v.1.15,2013-08-22 20:30:00,
2013-08-22 16:35:00,76.4,71.9,30.07,West,276,0.0,0.0,86,0.00,,,0.00,Wunderground v.1.15,2013-08-22 20:35:00,
2013-08-22 16:40:00,76.4,71.6,30.07,West,277,0.0,0.0,85,0.00,,,0.00,Wunderground v.1.15,2013-08-22 20:40:00,
2013-08-22 16:45:00,76.1,71.3,30.07,West,276,0.0,1.0,85,0.00,,,0.00,Wunderground v.1.15,2013-08-22 20:45:00,
2013-08-22 16:55:00,75.5,70.7,30.06,West,276,0.0,0.0,85,0.00,,,0.00,Wunderground v.1.15,2013-08-22 20:55:00,
2013-08-22 17:00:00,75.2,70.4,30.06,West,270,1.0,1.0,85,0.00,,,0.00,Wunderground v.1.15,2013-08-22 21:00:00,
2013-08-22 17:10:00,74.6,70.1,30.06,West,270,0.0,0.0,86,0.00,,,0.00,Wunderground v.1.15,2013-08-22 21:10:00,
2013-08-22 17:15:00,74.9,70.8,30.06,West,270,0.0,0.0,87,0.00,,,0.00,Wunderground v.1.15,2013-08-22 21:15:00,
2013-08-22 17:25:00,74.6,70.1,30.06,West,270,0.0,1.0,86,0.00,,,0.00,Wunderground v.1.15,2013-08-22 21:25:00,
2013-08-22 17:30:00,74.4,70.3,30.06,West,270,0.0,0.0,87,0.00,,,0.00,Wunderground v.1.15,2013-08-22 21:30:00,
2013-08-22 17:35:00,74.4,70.3,30.05,West,270,0.0,0.0,87,0.00,,,0.00,Wunderground v.1.15,2013-08-22 21:35:00,
2013-08-22 17:40:00,74.1,70.0,30.05,West,270,0.0,0.0,87,0.00,,,0.00,Wunderground v.1.15,2013-08-22 21:40:00,
2013-08-22 17:50:00,73.7,69.6,30.05,West,270,0.0,0.0,87,0.00,,,0.00,Wunderground v.1.15,2013-08-22 21:50:00,
2013-08-22 17:55:00,73.5,69.4,30.05,West,270,0.0,0.0,87,0.00,,,0.00,Wunderground v.1.15,2013-08-22 21:55:00,
2013-08-22 18:00:00,73.3,69.5,30.05,West,270,0.0,0.0,88,0.00,,,0.00,Wunderground v.1.15,2013-08-22 22:00:00,
2013-08-22 18:10:00,72.9,68.8,30.05,West,270,0.0,0.0,87,0.00,,,0.00,Wunderground v.1.15,2013-08-22 22:10:00,
2013-08-22 18:15:00,72.9,69.1,30.05,West,270,0.0,1.0,88,0.00,,,0.00,Wunderground v.1.15,2013-08-22 22:15:00,
2013-08-22 18:25:00,72.8,69.4,30.05,West,267,1.0,1.0,89,0.00,,,0.00,Wunderground v.1.15,2013-08-22 22:25:00,
2013-08-22 18:35:00,72.5,68.1,30.06,WNW,302,1.0,1.0,86,0.00,,,0.00,Wunderground v.1.15,2013-08-22 22:35:00,
2013-08-22 18:40:00,72.2,67.8,30.06,WNW,296,1.0,3.0,86,0.00,,,0.00,Wunderground v.1.15,2013-08-22 22:40:00,
2013-08-22 18:45:00,71.9,67.5,30.06,North,355,2.0,3.0,86,0.00,,,0.00,Wunderground v.1.15,2013-08-22 22:45:00,
2013-08-22 18:50:00,71.6,67.2,30.06,NNW,341,1.0,1.0,86,0.00,,,0.00,Wunderground v.1.15,2013-08-22 22:50:00,
2013-08-22 18:55:00,71.2,66.8,30.06,NNW,341,1.0,1.0,86,0.00,,,0.00,Wunderground v.1.15,2013-08-22 22:55:00,
2013-08-22 19:00:00,70.8,66.4,30.06,WNW,298,1.0,2.0,86,0.00,,,0.00,Wunderground v.1.15,2013-08-22 23:00:00,
2013-08-22 19:10:00,70.3,66.2,30.07,North,355,1.0,2.0,87,0.00,,,0.00,Wunderground v.1.15,2013-08-22 23:10:00,
2013-08-22 19:15:00,70.1,66.0,30.07,NNW,329,2.0,3.0,87,0.00,,,0.00,Wunderground v.1.15,2013-08-22 23:15:00,
2013-08-22 19:20:00,69.9,66.2,30.07,NW,320,2.0,2.0,88,0.00,,,0.00,Wunderground v.1.15,2013-08-22 23:20:00,
2013-08-22 19:25:00,69.8,66.1,30.07,West,269,1.0,2.0,88,0.00,,,0.00,Wunderground v.1.15,2013-08-22 23:25:00,
2013-08-22 19:35:00,69.6,66.2,30.07,West,279,0.0,1.0,89,0.00,,,0.00,Wunderground v.1.15,2013-08-22 23:35:00,
2013-08-22 19:40:00,69.5,66.1,30.07,West,279,0.0,0.0,89,0.00,,,0.00,Wunderground v.1.15,2013-08-22 23:40:00,
2013-08-22 19:45:00,69.5,66.1,30.07,West,279,0.0,0.0,89,0.00,,,0.00,Wunderground v.1.15,2013-08-22 23:45:00,
2013-08-22 19:55:00,69.2,66.1,30.07,West,278,0.0,0.0,90,0.08,,,0.05,Wunderground v.1.15,2013-08-22 23:55:00,
2013-08-22 20:00:00,69.0,65.9,30.08,West,278,0.0,0.0,90,0.05,,,0.05,Wunderground v.1.15,2013-08-23 00:00:00,
2013-08-22 20:10:00,68.3,65.3,30.07,West,278,0.0,0.0,90,0.00,,,0.05,Wunderground v.1.15,2013-08-23 00:10:00,
2013-08-22 20:15:00,68.1,65.1,30.07,West,278,0.0,0.0,90,0.00,,,0.05,Wunderground v.1.15,2013-08-23 00:15:00,
2013-08-22 20:25:00,67.7,65.0,30.07,West,278,0.0,0.0,91,0.00,,,0.05,Wunderground v.1.15,2013-08-23 00:25:00,
2013-08-22 20:30:00,67.5,64.8,30.08,West,278,0.0,1.0,91,0.00,,,0.05,Wunderground v.1.15,2013-08-23 00:30:00,
2013-08-22 20:40:00,67.3,64.6,30.07,West,278,0.0,0.0,91,0.00,,,0.05,Wunderground v.1.15,2013-08-23 00:40:00,
2013-08-22 20:45:00,67.2,64.5,30.08,West,278,0.0,0.0,91,0.00,,,0.05,Wunderground v.1.15,2013-08-23 00:45:00,
2013-08-22 20:55:00,66.9,64.2,30.08,West,278,0.0,0.0,91,0.00,,,0.05,Wunderground v.1.15,2013-08-23 00:55:00,
2013-08-22 21:00:00,66.8,64.1,30.08,West,278,0.0,0.0,91,0.00,,,0.05,Wunderground v.1.15,2013-08-23 01:00:00,
2013-08-22 21:05:00,66.7,64.0,30.08,West,278,0.0,0.0,91,0.00,,,0.05,Wunderground v.1.15,2013-08-23 01:05:00,
2013-08-22 21:10:00,66.6,64.2,30.08,West,278,0.0,0.0,92,0.00,,,0.05,Wunderground v.1.15,2013-08-23 01:10:00,
2013-08-22 21:15:00,66.6,64.2,30.08,West,278,0.0,0.0,92,0.00,,,0.05,Wunderground v.1.15,2013-08-23 01:15:00,
2013-08-22 21:25:00,66.3,63.9,30.09,West,278,0.0,0.0,92,0.00,,,0.05,Wunderground v.1.15,2013-08-23 01:25:00,
2013-08-22 21:30:00,66.3,63.9,30.09,West,278,0.0,0.0,92,0.00,,,0.05,Wunderground v.1.15,2013-08-23 01:30:00,
2013-08-22 21:40:00,66.1,63.7,30.09,West,278,0.0,0.0,92,0.00,,,0.05,Wunderground v.1.15,2013-08-23 01:40:00,
2013-08-22 21:45:00,66.0,63.6,30.09,West,278,0.0,0.0,92,0.00,,,0.05,Wunderground v.1.15,2013-08-23 01:45:00,
2013-08-22 21:55:00,65.9,63.5,30.09,West,278,0.0,0.0,92,0.00,,,0.05,Wunderground v.1.15,2013-08-23 01:55:00,
2013-08-22 22:00:00,65.9,63.5,30.10,West,278,0.0,0.0,92,0.00,,,0.05,Wunderground v.1.15,2013-08-23 02:00:00,
2013-08-22 22:10:00,65.8,63.4,30.09,West,278,0.0,0.0,92,0.00,,,0.05,Wunderground v.1.15,2013-08-23 02:10:00,
2013-08-22 22:20:00,65.6,63.2,30.09,West,278,0.0,0.0,92,0.00,,,0.05,Wunderground v.1.15,2013-08-23 02:20:00,
2013-08-22 22:25:00,65.5,63.1,30.09,West,278,0.0,0.0,92,0.00,,,0.06,Wunderground v.1.15,2013-08-23 02:25:00,
2013-08-22 22:35:00,65.3,62.9,30.10,West,278,0.0,0.0,92,0.00,,,0.06,Wunderground v.1.15,2013-08-23 02:35:00,
2013-08-22 22:40:00,65.3,62.9,30.09,West,278,0.0,0.0,92,0.00,,,0.06,Wunderground v.1.15,2013-08-23 02:40:00,
2013-08-22 22:45:00,65.3,62.9,30.09,West,278,0.0,0.0,92,0.00,,,0.06,Wunderground v.1.15,2013-08-23 02:45:00,
2013-08-22 22:55:00,65.2,62.8,30.10,West,278,0.0,0.0,92,0.00,,,0.06,Wunderground v.1.15,2013-08-23 02:55:00,
2013-08-22 23:00:00,65.3,63.2,30.10,West,278,0.0,0.0,93,0.00,,,0.06,Wunderground v.1.15,2013-08-23 03:00:00,
2013-08-22 23:10:00,65.3,63.2,30.10,West,278,0.0,0.0,93,0.00,,,0.06,Wunderground v.1.15,2013-08-23 03:10:00,
2013-08-22 23:15:00,65.3,63.2,30.09,West,278,0.0,0.0,93,0.00,,,0.06,Wunderground v.1.15,2013-08-23 03:15:00,
2013-08-22 23:25:00,65.3,63.2,30.09,West,278,0.0,0.0,93,0.00,,,0.06,Wunderground v.1.15,2013-08-23 03:25:00,
2013-08-22 23:30:00,65.3,63.2,30.09,West,278,0.0,0.0,93,0.00,,,0.06,Wunderground v.1.15,2013-08-23 03:30:00,
2013-08-22 23:35:00,65.2,63.1,30.09,West,278,0.0,0.0,93,0.00,,,0.06,Wunderground v.1.15,2013-08-23 03:35:00,
2013-08-22 23:40:00,65.1,63.0,30.09,West,278,0.0,0.0,93,0.00,,,0.06,Wunderground v.1.15,2013-08-23 03:40:00,
2013-08-22 23:50:00,65.0,62.9,30.09,West,278,0.0,0.0,93,0.00,,,0.06,Wunderground v.1.15,2013-08-23 03:50:00,
2013-08-22 23:55:00,65.0,62.9,30.10,West,278,0.0,0.0,93,0.00,,,0.06,Wunderground v.1.15,2013-08-23 03:55:00,